Lone Rock, WI

11:11 PM CDT on March 27, 2017 (GMT -0500)
Tri-County Regional

Weather History for KLNR - March, 2014

Change the Weather History Date:

Monday, March 24, 2014

  Actual Average Record
Temperature  
Mean Temperature 26 °F -  
Max Temperature 36 °F 47 °F 68 °F (2007)
Min Temperature 18 °F 28 °F 6 °F (2015)
Degree Days  
Heating Degree Days 38    
Moisture  
Dew Point 17 °F    
Average Humidity 67    
Maximum Humidity 93    
Minimum Humidity 43    
Precipitation  
Precipitation 0.01 in - - ()
Sea Level Pressure  
Sea Level Pressure 30.21 in    
Wind  
Wind Speed 6 mph (West)    
Max Wind Speed 17 mph    
Max Gust Speed 25 mph    
Visibility 9 miles    
Events Fog , Snow    
Averages and records for this station are not official NWS values.
T = Trace of Precipitation, MM = Missing Value Source: NWS Daily Summary

Daily Weather History Graph

Daily Weather History Graph

Search for Another Location

Airport or City:

Trip Planner

Search our weather history database for the weather conditions in past years. The results will help you decide how hot, cold, wet, or windy it might be!

Date:

Astronomy

Mar. 24, 2014 Rise Set
Actual Time 6:56 AM CDT 7:17 PM CDT
Civil Twilight 6:28 AM CDT 7:46 PM CDT
Nautical Twilight 5:54 AM CDT 8:19 PM CDT
Astronomical Twilight 5:20 AM CDT 8:54 PM CDT
Moon 2:35 AM CDT (3/24) 12:34 PM CDT (3/24)
Length of Visible Light 13h 17m
Length of Day
12h 21m
Last Quarter, 43% of the Moon is Illuminated
Mar 24
Last Quarter
Mar 30
New
Apr 7
First Quarter
Apr 15
Full
Apr 22
Last Quarter

Hourly Weather History & Observations

Time (CDT) Temp. Windchill Dew Point Humidity Pressure Visibility Wind Dir Wind Speed Gust Speed Precip Events Conditions
12:56 AM 18.0 °F - 10.0 °F 71% 30.40 in 10.0 mi Calm Calm - N/A   Clear
1:56 AM 19.9 °F 14.9 °F 9.0 °F 62% 30.40 in 10.0 mi West 3.5 mph - N/A   Clear
2:56 AM 19.0 °F - 10.9 °F 71% 30.40 in 10.0 mi Calm Calm - N/A   Partly Cloudy
3:56 AM 19.9 °F 12.1 °F 10.9 °F 68% 30.38 in 10.0 mi West 5.8 mph - N/A   Clear
4:56 AM 19.0 °F 13.9 °F 10.9 °F 71% 30.36 in 10.0 mi SW 3.5 mph - N/A   Mostly Cloudy
5:56 AM 19.9 °F 13.4 °F 10.0 °F 65% 30.36 in 10.0 mi West 4.6 mph - N/A   Mostly Cloudy
6:56 AM 18.0 °F - 12.0 °F 78% 30.36 in 10.0 mi Calm Calm - N/A   Partly Cloudy
7:56 AM 19.9 °F - 14.0 °F 78% 30.35 in 10.0 mi Calm Calm - N/A   Clear
8:56 AM 24.1 °F 16.0 °F 12.0 °F 60% 30.35 in 10.0 mi West 6.9 mph - N/A   Overcast
9:56 AM 26.1 °F 16.8 °F 12.9 °F 58% 30.33 in 10.0 mi WSW 9.2 mph - N/A   Mostly Cloudy
10:56 AM 28.9 °F 21.1 °F 10.9 °F 47% 30.31 in 10.0 mi WSW 8.1 mph - N/A   Clear
11:56 AM 30.9 °F 23.5 °F 10.9 °F 43% 30.29 in 10.0 mi West 8.1 mph - N/A   Scattered Clouds
12:56 PM 32.0 °F 24.8 °F 12.0 °F 44% 30.27 in 10.0 mi WSW 8.1 mph - N/A   Partly Cloudy
1:56 PM 33.1 °F 23.9 °F 12.9 °F 43% 30.22 in 10.0 mi WSW 12.7 mph - N/A   Mostly Cloudy
2:56 PM 34.0 °F 25.5 °F 15.1 °F 46% 30.19 in 10.0 mi West 11.5 mph - N/A   Overcast
3:56 PM 35.1 °F 24.8 °F 17.1 °F 48% 30.16 in 10.0 mi West 17.3 mph 25.3 mph N/A   Overcast
4:56 PM 33.1 °F 25.5 °F 21.0 °F 61% 30.14 in 10.0 mi West 9.2 mph - N/A   Overcast
5:56 PM 33.1 °F 23.0 °F 19.9 °F 59% 30.12 in 10.0 mi West 15.0 mph 21.9 mph 0.00 in   Mostly Cloudy
6:56 PM 32.0 °F 24.2 °F 23.0 °F 69% 30.10 in 10.0 mi WSW 9.2 mph - N/A   Mostly Cloudy
7:10 PM 32.0 °F 22.5 °F 23.0 °F 69% 30.07 in 10.0 mi SW 12.7 mph - N/A   Overcast
7:37 PM 30.9 °F 22.8 °F 24.1 °F 76% 30.07 in 10.0 mi SW 9.2 mph - N/A   Mostly Cloudy
7:56 PM 30.9 °F 23.5 °F 23.0 °F 72% 30.08 in 10.0 mi SW 8.1 mph - N/A   Mostly Cloudy
8:37 PM 30.9 °F 20.7 °F 24.1 °F 76% 30.07 in 1.5 mi WNW 13.8 mph - 0.00 in Snow Light Snow
8:42 PM 28.9 °F 18.6 °F 26.1 °F 89% 30.07 in 0.2 mi West 12.7 mph - 0.00 in Fog , Snow Heavy Snow
8:53 PM 28.4 °F 17.5 °F 26.6 °F 93% 30.06 in 1.2 mi West 13.8 mph - 0.01 in Snow Light Snow
8:56 PM 28.9 °F 19.8 °F 25.0 °F 85% 30.08 in 2.0 mi West 10.4 mph - 0.01 in Snow Light Snow
9:05 PM 28.9 °F 19.2 °F 25.0 °F 85% 30.07 in 4.0 mi West 11.5 mph - 0.00 in Snow Light Snow
9:42 PM 28.0 °F 20.0 °F 24.1 °F 85% 30.06 in 10.0 mi West 8.1 mph - 0.00 in   Overcast
9:56 PM 28.0 °F 20.0 °F 23.0 °F 81% 30.08 in 10.0 mi West 8.1 mph - 0.00 in   Overcast
10:56 PM 28.9 °F 19.8 °F 19.0 °F 67% 30.08 in 10.0 mi WNW 10.4 mph - N/A   Overcast
11:56 PM 26.1 °F 16.2 °F 15.1 °F 63% 30.08 in 10.0 mi NW 10.4 mph - N/A   Partly Cloudy